NIGCOMSAT 1R (38014 NORAD) Tracking and Keplerian Element Data

This shows tracking and keplerian element data for the satellite.

Feedback or suggestion? Click here.




ElementValue
Catalog38014
NameNIGCOMSAT 1R
Epoch Orbit5116
Epoch Day354.10580803
Epoch Year2025
RAAN117.8448
Inclination0.0585
Eccentricity0.0003374
Argument of Perigee182.5686
Mean Anonmoly229.1284
Mean Motion1.00270134
Decay Rate1.69E-06
L11 38014U 11077A 25354.10580803 .00000169 00000+0 00000+0 0 9990
L22 38014 0.0585 117.8448 0003374 182.5686 229.1284 1.00270134 51161



Live tracking and technical data element details for NIGCOMSAT 1R (NORAD 38014). NIGCOMSAT 1R can be tracked NOW for your location showing map with azimuth and elevation plus other details from your city location.







IsCatalogInMostPopularTable: catalog: 38014, numindb: 472
Update: records affected: 1



GetName: 38014 NIGCOMSAT 1R

Hit Count: updated at: Sun, 19 Apr 2026 07:56:34 GMT